Time,TemperatureF,DewpointF,PressureIn,WindDirection,WindDirectionDegrees,WindSpeedMPH,WindSpeedGustMPH,Humidity,HourlyPrecipIn,Conditions,Clouds,dailyrainin,SoftwareType,DateUTC
2013-05-06 00:02:00,50.0,49.0,29.86,SSW,196,0.0,0.0,97,0.13,,,1.43,,2013-05-06 04:02:00,
2013-05-06 00:12:00,50.0,49.0,29.86,SSW,196,0.0,0.0,97,0.13,,,1.43,,2013-05-06 04:12:00,
2013-05-06 00:23:00,50.0,49.0,29.85,SSW,196,0.0,0.0,97,0.13,,,1.33,,2013-05-06 04:23:00,
2013-05-06 00:32:00,50.0,49.0,29.85,SSW,203,0.0,1.0,97,0.14,,,1.37,,2013-05-06 04:32:00,
2013-05-06 00:43:00,50.0,49.0,29.85,SSW,203,0.0,1.0,97,0.14,,,1.37,,2013-05-06 04:43:00,
2013-05-06 00:53:00,50.0,49.0,29.83,SSW,203,0.0,0.0,97,0.13,,,1.40,,2013-05-06 04:53:00,
2013-05-06 01:02:00,49.0,48.0,29.81,SSW,203,0.0,0.0,97,0.12,,,1.42,,2013-05-06 05:02:00,
2013-05-06 01:12:00,49.0,48.0,29.81,SSW,203,0.0,0.0,97,0.12,,,1.42,,2013-05-06 05:12:00,
2013-05-06 01:22:00,49.0,48.0,29.80,SSW,203,0.0,0.0,97,0.09,,,1.31,,2013-05-06 05:22:00,
2013-05-06 01:32:00,48.0,47.0,29.81,SSW,203,0.0,0.0,97,0.05,,,1.31,,2013-05-06 05:32:00,
2013-05-06 01:42:00,48.0,47.0,29.81,SSW,203,0.0,0.0,97,0.05,,,1.31,,2013-05-06 05:42:00,
2013-05-06 01:52:00,48.0,47.0,29.81,SSW,203,0.0,0.0,97,0.02,,,1.31,,2013-05-06 05:52:00,
2013-05-06 02:02:00,48.0,47.0,29.81,SSW,203,0.0,0.0,97,0.00,,,1.31,,2013-05-06 06:02:00,
2013-05-06 02:12:00,48.0,47.0,29.81,SSW,203,0.0,0.0,97,0.00,,,1.31,,2013-05-06 06:12:00,
2013-05-06 02:21:00,48.0,47.0,29.82,SSW,203,0.0,0.0,97,0.00,,,1.18,,2013-05-06 06:21:00,
2013-05-06 02:32:00,48.0,47.0,29.82,SSW,203,0.0,0.0,97,0.00,,,1.18,,2013-05-06 06:32:00,
2013-05-06 02:42:00,48.0,47.0,29.82,SSW,203,0.0,0.0,97,0.00,,,1.18,,2013-05-06 06:42:00,
2013-05-06 02:52:00,48.0,47.0,29.82,SSW,203,0.0,0.0,97,0.00,,,1.18,,2013-05-06 06:52:00,
2013-05-06 03:01:00,48.0,47.0,29.81,SSW,203,0.0,0.0,97,0.00,,,1.18,,2013-05-06 07:01:00,
2013-05-06 03:11:00,48.0,47.0,29.81,SSW,203,0.0,0.0,97,0.00,,,1.18,,2013-05-06 07:11:00,
2013-05-06 03:22:00,48.0,47.0,29.81,SSW,203,0.0,0.0,97,0.00,,,1.02,,2013-05-06 07:22:00,
2013-05-06 03:32:00,48.0,47.0,29.81,SSW,203,0.0,0.0,97,0.00,,,1.02,,2013-05-06 07:32:00,
2013-05-06 03:42:00,48.0,47.0,29.81,SSW,203,0.0,0.0,97,0.00,,,1.02,,2013-05-06 07:42:00,
2013-05-06 03:52:00,48.0,47.0,29.81,SSW,203,0.0,0.0,97,0.00,,,1.02,,2013-05-06 07:52:00,
2013-05-06 04:02:00,47.0,46.0,29.80,SSW,203,0.0,0.0,97,0.00,,,1.02,,2013-05-06 08:02:00,
2013-05-06 04:12:00,47.0,46.0,29.80,SSW,203,0.0,0.0,97,0.00,,,1.02,,2013-05-06 08:12:00,
2013-05-06 04:22:00,47.0,46.0,29.80,SSW,203,0.0,0.0,97,0.00,,,0.82,,2013-05-06 08:22:00,
2013-05-06 04:32:00,46.0,45.0,29.80,SSW,203,0.0,0.0,97,0.00,,,0.82,,2013-05-06 08:32:00,
2013-05-06 04:42:00,46.0,45.0,29.80,SSW,203,0.0,0.0,97,0.00,,,0.82,,2013-05-06 08:42:00,
2013-05-06 04:52:00,46.0,45.0,29.80,SSW,203,0.0,0.0,97,0.00,,,0.82,,2013-05-06 08:52:00,
2013-05-06 05:01:00,46.0,45.0,29.80,SSW,203,0.0,0.0,97,0.00,,,0.82,,2013-05-06 09:01:00,
2013-05-06 05:11:00,46.0,45.0,29.80,SSW,203,0.0,0.0,97,0.00,,,0.82,,2013-05-06 09:11:00,
2013-05-06 05:22:00,46.0,45.0,29.80,SSW,203,0.0,0.0,97,0.00,,,0.62,,2013-05-06 09:22:00,
2013-05-06 05:33:00,46.0,45.0,29.80,SSW,203,0.0,0.0,97,0.00,,,0.62,,2013-05-06 09:33:00,
2013-05-06 05:43:00,46.0,45.0,29.80,SSW,203,0.0,0.0,97,0.00,,,0.62,,2013-05-06 09:43:00,
2013-05-06 05:53:00,46.0,45.0,29.80,SSW,203,0.0,0.0,97,0.01,,,0.63,,2013-05-06 09:53:00,
2013-05-06 06:02:00,45.0,44.0,29.80,SSW,203,0.0,0.0,97,0.01,,,0.63,,2013-05-06 10:02:00,
2013-05-06 06:12:00,45.0,44.0,29.80,SSW,203,0.0,0.0,97,0.01,,,0.63,,2013-05-06 10:12:00,
2013-05-06 06:22:00,45.0,44.0,29.81,SSW,203,0.0,0.0,98,0.01,,,0.54,,2013-05-06 10:22:00,
2013-05-06 06:33:00,45.0,44.0,29.81,SSW,203,0.0,0.0,98,0.01,,,0.54,,2013-05-06 10:33:00,
2013-05-06 06:42:00,45.0,44.0,29.81,SSW,203,0.0,0.0,98,0.01,,,0.54,,2013-05-06 10:42:00,
2013-05-06 06:52:00,45.0,44.0,29.82,SSW,203,0.0,0.0,98,0.00,,,0.54,,2013-05-06 10:52:00,
2013-05-06 07:02:00,45.0,44.0,29.82,SSW,203,0.0,0.0,98,0.00,,,0.54,,2013-05-06 11:02:00,
2013-05-06 07:12:00,45.0,44.0,29.82,SSW,203,0.0,0.0,98,0.00,,,0.54,,2013-05-06 11:12:00,
2013-05-06 07:22:00,46.0,45.0,29.82,SSW,203,0.0,0.0,98,0.00,,,0.54,,2013-05-06 11:22:00,
2013-05-06 07:32:00,46.0,45.0,29.83,SSW,203,0.0,0.0,98,0.00,,,0.54,,2013-05-06 11:32:00,
2013-05-06 07:42:00,46.0,45.0,29.83,SSW,203,0.0,0.0,98,0.00,,,0.54,,2013-05-06 11:42:00,
2013-05-06 07:52:00,46.0,45.0,29.83,SSW,203,0.0,0.0,98,0.00,,,0.54,,2013-05-06 11:52:00,
2013-05-06 08:01:00,46.0,45.0,29.85,SSW,203,0.0,0.0,98,0.00,,,0.54,,2013-05-06 12:01:00,
2013-05-06 08:12:00,46.0,45.0,29.85,SSW,203,0.0,0.0,98,0.00,,,0.54,,2013-05-06 12:12:00,
2013-05-06 08:21:00,47.0,46.0,29.85,SSW,203,0.0,0.0,98,0.00,,,0.54,,2013-05-06 12:21:00,
2013-05-06 08:32:00,47.0,46.0,29.85,SSW,213,0.0,0.0,98,0.00,,,0.54,,2013-05-06 12:32:00,
2013-05-06 08:42:00,47.0,46.0,29.85,SSW,213,0.0,0.0,98,0.00,,,0.54,,2013-05-06 12:42:00,
2013-05-06 08:52:00,47.0,46.0,29.85,SW,223,0.0,0.0,98,0.00,,,0.54,,2013-05-06 12:52:00,
2013-05-06 09:01:00,48.0,47.0,29.85,SW,223,0.0,0.0,98,0.00,,,0.54,,2013-05-06 13:01:00,
2013-05-06 09:11:00,48.0,47.0,29.85,SW,223,0.0,0.0,98,0.00,,,0.54,,2013-05-06 13:11:00,
2013-05-06 09:21:00,48.0,47.0,29.85,WNW,300,0.0,0.0,98,0.00,,,0.54,,2013-05-06 13:21:00,
2013-05-06 09:32:00,49.0,48.0,29.85,WNW,286,0.0,1.0,98,0.00,,,0.54,,2013-05-06 13:32:00,
2013-05-06 09:42:00,49.0,48.0,29.85,WNW,286,0.0,1.0,98,0.00,,,0.54,,2013-05-06 13:42:00,
2013-05-06 09:52:00,50.0,49.0,29.86,WNW,290,0.0,1.0,98,0.00,,,0.54,,2013-05-06 13:52:00,
2013-05-06 10:01:00,50.0,49.0,29.86,NW,323,0.0,2.0,97,0.00,,,0.54,,2013-05-06 14:01:00,
2013-05-06 10:11:00,50.0,49.0,29.86,NW,323,0.0,2.0,97,0.00,,,0.54,,2013-05-06 14:11:00,
2013-05-06 10:21:00,51.0,50.0,29.87,NNW,338,0.0,1.0,97,0.00,,,0.54,,2013-05-06 14:21:00,
2013-05-06 10:32:00,51.0,50.0,29.87,NNW,336,0.0,1.0,96,0.00,,,0.54,,2013-05-06 14:32:00,
2013-05-06 10:42:00,51.0,50.0,29.87,NNW,336,0.0,1.0,96,0.00,,,0.54,,2013-05-06 14:42:00,
2013-05-06 10:52:00,51.0,50.0,29.87,NW,306,0.0,1.0,95,0.00,,,0.54,,2013-05-06 14:52:00,
2013-05-06 11:01:00,51.0,49.0,29.88,NW,306,0.0,0.0,94,0.00,,,0.54,,2013-05-06 15:01:00,
2013-05-06 11:11:00,51.0,49.0,29.88,NW,306,0.0,0.0,94,0.00,,,0.54,,2013-05-06 15:11:00,
2013-05-06 11:21:00,52.0,50.0,29.88,NNE,28,0.0,2.0,92,0.00,,,0.54,,2013-05-06 15:21:00,
2013-05-06 11:33:00,51.0,49.0,29.88,NNE,18,0.0,1.0,92,0.00,,,0.54,,2013-05-06 15:33:00,
2013-05-06 11:42:00,51.0,49.0,29.88,NNE,18,0.0,1.0,92,0.00,,,0.54,,2013-05-06 15:42:00,
2013-05-06 11:53:00,53.0,51.0,29.89,NNW,333,0.0,1.0,93,0.00,,,0.54,,2013-05-06 15:53:00,
2013-05-06 12:03:00,52.0,49.0,29.88,WNW,284,0.0,2.0,91,0.01,,,0.55,,2013-05-06 16:03:00,
2013-05-06 12:13:00,52.0,49.0,29.88,WNW,284,0.0,2.0,91,0.01,,,0.55,,2013-05-06 16:13:00,
2013-05-06 12:23:00,52.0,49.0,29.88,WNW,284,0.0,2.0,90,0.01,,,0.54,,2013-05-06 16:23:00,
2013-05-06 12:33:00,52.0,49.0,29.88,SW,228,0.0,3.0,91,0.01,,,0.54,,2013-05-06 16:33:00,
2013-05-06 12:42:00,52.0,49.0,29.88,SW,228,0.0,3.0,91,0.01,,,0.54,,2013-05-06 16:42:00,
2013-05-06 12:52:00,54.0,51.0,29.88,WNW,284,0.0,2.0,90,0.01,,,0.54,,2013-05-06 16:52:00,
2013-05-06 13:03:00,54.0,50.0,29.88,West,261,0.0,2.0,86,0.00,,,0.54,,2013-05-06 17:03:00,
2013-05-06 13:12:00,54.0,50.0,29.88,West,261,0.0,2.0,86,0.00,,,0.54,,2013-05-06 17:12:00,
2013-05-06 13:23:00,55.0,51.0,29.88,NNW,338,1.0,3.0,85,0.00,,,0.54,,2013-05-06 17:23:00,
2013-05-06 13:31:00,54.0,50.0,29.88,West,269,0.0,1.0,87,0.00,,,0.54,,2013-05-06 17:31:00,
2013-05-06 13:42:00,54.0,50.0,29.88,West,269,0.0,1.0,87,0.00,,,0.54,,2013-05-06 17:42:00,
2013-05-06 13:52:00,57.0,51.0,29.88,WNW,296,2.0,4.0,81,0.00,,,0.54,,2013-05-06 17:52:00,
2013-05-06 14:01:00,56.0,50.0,29.88,NW,315,0.0,4.0,80,0.00,,,0.54,,2013-05-06 18:01:00,
2013-05-06 14:12:00,56.0,50.0,29.88,NW,315,0.0,4.0,80,0.00,,,0.54,,2013-05-06 18:12:00,
2013-05-06 14:22:00,56.0,49.0,29.88,WNW,300,0.0,3.0,78,0.00,,,0.54,,2013-05-06 18:22:00,
2013-05-06 14:32:00,56.0,49.0,29.88,WNW,294,1.0,4.0,77,0.00,,,0.54,,2013-05-06 18:32:00,
2013-05-06 14:43:00,56.0,49.0,29.88,WNW,294,1.0,4.0,77,0.00,,,0.54,,2013-05-06 18:43:00,
2013-05-06 14:52:00,58.0,49.0,29.88,SSW,194,1.0,4.0,72,0.00,,,0.54,,2013-05-06 18:52:00,
2013-05-06 15:01:00,57.0,49.0,29.88,SSW,200,1.0,4.0,74,0.00,,,0.54,,2013-05-06 19:01:00,
2013-05-06 15:11:00,57.0,49.0,29.88,SSW,200,1.0,4.0,74,0.00,,,0.54,,2013-05-06 19:11:00,
2013-05-06 15:22:00,58.0,49.0,29.88,WSW,241,1.0,6.0,72,0.00,,,0.53,,2013-05-06 19:22:00,
2013-05-06 15:32:00,58.0,50.0,29.88,WNW,296,1.0,7.0,75,0.00,,,0.53,,2013-05-06 19:32:00,
2013-05-06 15:41:00,58.0,50.0,29.88,WNW,296,1.0,7.0,75,0.00,,,0.53,,2013-05-06 19:41:00,
2013-05-06 15:52:00,57.0,51.0,29.88,NNW,335,0.0,3.0,79,0.00,,,0.53,,2013-05-06 19:52:00,
2013-05-06 16:02:00,56.0,50.0,29.88,WSW,246,0.0,2.0,79,0.00,,,0.53,,2013-05-06 20:02:00,
2013-05-06 16:11:00,56.0,50.0,29.88,WSW,246,0.0,2.0,79,0.00,,,0.53,,2013-05-06 20:11:00,
2013-05-06 16:21:00,56.0,50.0,29.88,WSW,258,1.0,3.0,81,0.00,,,0.53,,2013-05-06 20:21:00,
2013-05-06 16:32:00,55.0,50.0,29.88,NW,322,0.0,4.0,82,0.00,,,0.53,,2013-05-06 20:32:00,
2013-05-06 16:42:00,55.0,50.0,29.88,NW,322,0.0,4.0,82,0.00,,,0.53,,2013-05-06 20:42:00,
2013-05-06 16:52:00,55.0,51.0,29.88,South,183,1.0,3.0,85,0.00,,,0.53,,2013-05-06 20:52:00,
2013-05-06 17:01:00,54.0,50.0,29.88,West,269,0.0,2.0,85,0.00,,,0.53,,2013-05-06 21:01:00,
2013-05-06 17:11:00,54.0,50.0,29.88,West,269,0.0,2.0,85,0.00,,,0.53,,2013-05-06 21:11:00,
2013-05-06 17:21:00,55.0,50.0,29.87,WSW,257,1.0,4.0,82,0.00,,,0.50,,2013-05-06 21:21:00,
2013-05-06 17:33:00,55.0,50.0,29.87,WNW,285,0.0,2.0,82,0.00,,,0.50,,2013-05-06 21:33:00,
2013-05-06 17:43:00,55.0,50.0,29.87,WNW,285,0.0,2.0,82,0.00,,,0.50,,2013-05-06 21:43:00,
2013-05-06 17:53:00,55.0,51.0,29.87,WNW,286,0.0,1.0,85,0.00,,,0.50,,2013-05-06 21:53:00,
2013-05-06 18:03:00,55.0,51.0,29.87,West,263,0.0,4.0,85,0.00,,,0.50,,2013-05-06 22:03:00,
2013-05-06 18:12:00,55.0,51.0,29.87,West,263,0.0,4.0,85,0.00,,,0.50,,2013-05-06 22:12:00,
2013-05-06 18:22:00,55.0,50.0,29.87,West,263,0.0,2.0,84,0.00,,,0.50,,2013-05-06 22:22:00,
2013-05-06 18:33:00,55.0,49.0,29.88,West,263,0.0,2.0,81,0.00,,,0.50,,2013-05-06 22:33:00,
2013-05-06 18:45:00,55.0,49.0,29.88,West,263,0.0,2.0,81,0.00,,,0.50,,2013-05-06 22:45:00,
2013-05-06 18:52:00,55.0,49.0,29.88,WSW,254,1.0,3.0,80,0.00,,,0.50,,2013-05-06 22:52:00,
2013-05-06 19:03:00,56.0,50.0,29.87,SSE,148,1.0,4.0,79,0.00,,,0.50,,2013-05-06 23:03:00,
2013-05-06 19:12:00,56.0,50.0,29.87,SSE,148,1.0,4.0,79,0.00,,,0.50,,2013-05-06 23:12:00,
2013-05-06 19:22:00,55.0,49.0,29.88,SW,219,0.0,1.0,81,0.00,,,0.50,,2013-05-06 23:22:00,
2013-05-06 19:32:00,55.0,50.0,29.88,SW,219,0.0,0.0,84,0.00,,,0.50,,2013-05-06 23:32:00,
2013-05-06 19:42:00,55.0,50.0,29.88,SW,219,0.0,0.0,84,0.00,,,0.50,,2013-05-06 23:42:00,
2013-05-06 19:52:00,55.0,50.0,29.88,SW,225,0.0,2.0,83,0.00,,,0.50,,2013-05-06 23:52:00,
2013-05-06 20:01:00,54.0,50.0,29.88,SW,225,0.0,0.0,86,0.00,,,0.50,,2013-05-07 00:01:00,
2013-05-06 20:11:00,54.0,50.0,29.88,SW,225,0.0,0.0,86,0.00,,,0.50,,2013-05-07 00:11:00,
2013-05-06 20:21:00,53.0,50.0,29.89,SW,225,0.0,0.0,88,0.00,,,0.45,,2013-05-07 00:21:00,
2013-05-06 20:32:00,53.0,50.0,29.89,SW,225,0.0,0.0,90,0.00,,,0.45,,2013-05-07 00:32:00,
2013-05-06 20:42:00,53.0,50.0,29.89,SW,225,0.0,0.0,90,0.00,,,0.45,,2013-05-07 00:42:00,
2013-05-06 20:52:00,52.0,49.0,29.89,SW,225,0.0,0.0,91,0.00,,,0.45,,2013-05-07 00:52:00,
2013-05-06 21:01:00,52.0,50.0,29.90,SW,225,0.0,0.0,92,0.00,,,0.45,,2013-05-07 01:01:00,
2013-05-06 21:11:00,52.0,50.0,29.90,SW,225,0.0,0.0,92,0.00,,,0.45,,2013-05-07 01:11:00,
2013-05-06 21:21:00,52.0,50.0,29.90,SW,225,0.0,0.0,93,0.00,,,0.39,,2013-05-07 01:21:00,
2013-05-06 21:32:00,52.0,50.0,29.90,SW,225,0.0,0.0,94,0.00,,,0.39,,2013-05-07 01:32:00,
2013-05-06 21:42:00,52.0,50.0,29.90,SW,225,0.0,0.0,94,0.00,,,0.39,,2013-05-07 01:42:00,
2013-05-06 21:53:00,52.0,50.0,29.91,SW,225,0.0,0.0,94,0.00,,,0.39,,2013-05-07 01:53:00,
2013-05-06 22:02:00,51.0,49.0,29.91,SW,225,0.0,0.0,94,0.01,,,0.40,,2013-05-07 02:02:00,
2013-05-06 22:11:00,51.0,49.0,29.91,SW,225,0.0,0.0,94,0.01,,,0.40,,2013-05-07 02:11:00,
2013-05-06 22:22:00,51.0,50.0,29.91,SW,225,0.0,0.0,95,0.01,,,0.38,,2013-05-07 02:22:00,
2013-05-06 22:32:00,51.0,50.0,29.91,SW,225,0.0,0.0,95,0.01,,,0.38,,2013-05-07 02:32:00,
2013-05-06 22:42:00,51.0,50.0,29.91,SW,225,0.0,0.0,95,0.01,,,0.38,,2013-05-07 02:42:00,
2013-05-06 22:52:00,51.0,50.0,29.92,SW,225,0.0,0.0,95,0.01,,,0.38,,2013-05-07 02:52:00,
2013-05-06 23:01:00,51.0,50.0,29.92,SW,225,0.0,0.0,95,0.00,,,0.38,,2013-05-07 03:01:00,
2013-05-06 23:11:00,51.0,50.0,29.92,SW,225,0.0,0.0,95,0.00,,,0.38,,2013-05-07 03:11:00,
2013-05-06 23:22:00,51.0,50.0,29.92,SW,225,0.0,0.0,95,0.00,,,0.25,,2013-05-07 03:22:00,
2013-05-06 23:32:00,51.0,50.0,29.92,SW,225,0.0,0.0,96,0.00,,,0.25,,2013-05-07 03:32:00,
2013-05-06 23:42:00,51.0,50.0,29.92,SW,225,0.0,0.0,96,0.00,,,0.25,,2013-05-07 03:42:00,
2013-05-06 23:53:00,50.0,49.0,29.93,SW,225,0.0,0.0,96,0.00,,,0.25,,2013-05-07 03:53:00,